Regional Weather Roundup
Issued by NWS

Home | Current Version | Previous Version | Graphics & Text | Print | Product List | Glossary On
Versions: 1 2 3 4 5 6 7 8 9 10 11 12 13 14 15 16 17 18 19 20 21 22 23 24 25 26 27 28 29 30 31 32 33 34 35 36 37 38 39 40 41 42 43 44 45 46 47 48 49 50
000
ASUS43 KLOT 270008
RWRIL

ILLINOIS REGIONAL WEATHER ROUNDUP
NATIONAL WEATHER SERVICE CHICAGO/ROMEOVILLE IL
700 PM CDT THU APR 26 2018

NOTE: "FAIR" INDICATES FEW OR NO CLOUDS BELOW 12,000 FEET WITH NO
SIGNIFICANT WEATHER AND/OR OBSTRUCTIONS TO VISIBILITY.

* THESE STATIONS ARE NOT UNDER NWS QUALITY CONTROL. THEY ALSO MAY NOT
  REPORT WEATHER SUCH AS PRECIPITATION OR FOG.

ILZ001-002-007-009-015-016-024-270100-
NORTHWEST ILLINOIS

CITY           SKY/WX    TMP DP  RH WIND       PRES   REMARKS
MOLINE         FAIR      69  29  22 W10       29.82F
6HR MIN TEMP:  67; 6HR MAX TEMP:  72;

STERLING*      FAIR      67  30  25 W9        29.83F
SAVANNA*       FAIR      68  29  23 W6        29.81F
$$

ILZ003-004-008-010-011-017-018-270100-
NORTH CENTRAL ILLINOIS

CITY           SKY/WX    TMP DP  RH WIND       PRES   REMARKS
ROCKFORD       MOCLDY    66  28  24 W12       29.83F
6HR MIN TEMP:  62; 6HR MAX TEMP:  68;

FREEPORT*      FAIR      66  27  23 W8        29.83F
ROCHELLE*      FAIR      65  31  27 W9        29.84S
DE KALB*       FAIR      65  31  27 W9        29.84F
PERU*          FAIR      68  32  26 W8        29.85R
$$

ILZ005-006-012>014-019>023-270100-
NORTHEAST ILLINOIS

CITY           SKY/WX    TMP DP  RH WIND       PRES   REMARKS
CHICAGO-OHARE  CLOUDY    65  28  24 W9        29.83S
6HR MIN TEMP:  61; 6HR MAX TEMP:  66;

CHICAGO-MIDWAY CLOUDY    61  27  27 E7        29.84S
6HR MIN TEMP:  61; 6HR MAX TEMP:  66;

AURORA         FAIR      64  31  28 SW7       29.84S
6HR MIN TEMP:  62; 6HR MAX TEMP:  66;

LANSING*       FAIR      60  38  43 CALM      29.85S
JOLIET*        FAIR      66  31  26 W5        29.85S
WAUKEGAN       FAIR      52  26  36 SE8       29.83F
6HR MIN TEMP:  52; 6HR MAX TEMP:  55;

DUPAGE AIRPORT FAIR      63  32  31 SW6       29.83S
6HR MIN TEMP:  60; 6HR MAX TEMP:  65;

KANKAKEE*      FAIR      64  29  27 CALM      29.86F
WHEELING       FAIR      65  28  24 S5        29.84F
6HR MIN TEMP:  62; 6HR MAX TEMP:  66;

MORRIS*        FAIR      64  30  27 SW6       29.84S
ROMEOVILLE*    FAIR      63  32  31 W5        29.84S
NORTHERLY ISL    N/A     47  35  63 SE2         N/A
$$

LMZ740>746-270100-
SOUTHERN LAKE MICHIGAN

STATION/POSITION SKY/WX   TEMP    WIND        PRES    VSBY  WAVE
                          AIR SEA DIR/SP/G                  HT/PER
                          (F)     (DEG/KT/KT) (MB)    (MI)  (FT/S)
HARRISON CRIB              48     180/  9/  9   N/A
BURNHAM HARBOR             47     140/  2/  5   N/A
CALUMET HARBOR             50     110/  6/  9 1010.4F
BURNS HARBOR               51      90/  3/  8 1011.5F
MICHIGAN CITY              56      50/  5/  5   N/A
ST. JOSEPH                 48 45     CALM     1011.6          1
$$

ILZ025>027-034>036-040-047-049-050-058-095>099-270100-
WEST-CENTRAL ILLINOIS

CITY           SKY/WX    TMP DP  RH WIND       PRES   REMARKS
QUINCY         CLOUDY    67  33  28 W8        29.87F
GALESBURG*     FAIR      71  33  25 W10       29.86S
MACOMB*        CLOUDY    67  31  26 W8        29.88S
JACKSONVILLE*  MOCLDY    67  30  24 W8        29.87F
PITTSFIELD*    PTCLDY    68  33  27 NW3       29.89S
$$

ILZ028>032-037-038-041>044-048-051>054-059>061-270100-
CENTRAL ILLINOIS

CITY           SKY/WX    TMP DP  RH WIND       PRES   REMARKS
PONTIAC        FAIR      65  32  29 W7        29.86S
BLOOMINGTON    FAIR      64  33  31 W8        29.88S
DECATUR        FAIR      64  31  28 NW9       29.87S
PEORIA         FAIR      67  32  27 W3        29.85F
6HR MIN TEMP:  64; 6HR MAX TEMP:  69;

LACON*         FAIR      67  32  27 W3        29.83F
LINCOLN*       FAIR      67  35  31 CALM      29.87S
SPRINGFIELD    FAIR      69  33  26 NW3       29.87F
6HR MIN TEMP:  66; 6HR MAX TEMP:  72;

TAYLORVILLE    FAIR      65  32  28 N8        29.87F
6HR MIN TEMP:  64; 6HR MAX TEMP:  69;

$$

ILZ033-039-045-046-055>057-062-063-270100-
EAST-CENTRAL ILLINOIS

CITY           SKY/WX    TMP DP  RH WIND       PRES   REMARKS
CHAMPAIGN      FAIR      64  33  31 NW6       29.87S
DANVILLE*      FAIR      62  32  32 NW5       29.84F
RANTOUL*       FAIR      66  32  28 NW3       29.86F
MATTOON        FAIR      62  38  40 N7        29.86S
PARIS*         FAIR      63  28  27 N5        29.87S
$$

ILZ079-100>102-270100-
SOUTHWEST ILLINOIS

CITY           SKY/WX    TMP DP  RH WIND       PRES   REMARKS
ALTON          MOCLDY    64  41  42 NW9       29.88F
BELLEVILLE     CLEAR     66  42  41 W7        29.86F
CAHOKIA*       CLOUDY    65  42  43 NW8       29.87F
SPARTA*        CLEAR     64  46  51 CALM      29.90F
$$

ILZ064>066-069>071-074>076-080>082-084>086-088>090-092>094-270100-
SOUTH-CENTRAL ILLINOIS

CITY           SKY/WX    TMP DP  RH WIND       PRES   REMARKS
CARBONDALE     FAIR      64  45  49 NW3       29.89S
6HR MIN TEMP:  61; 6HR MAX TEMP:  67;

CAIRO*         FAIR      64  46  53 SW5       29.89S
EFFINGHAM*     FAIR      65  37  34 NW6       29.89S
MARION         PTCLDY    64  39  39 NW9       29.90S
MT. VERNON     FAIR      66  38  35 CALM      29.88S
CENTRALIA*     CLOUDY    66  42  41 NW6       29.88F
SALEM*         FAIR      67  36  31 N7        29.88F
METROPOLIS*    FAIR      64  44  48 NW5       29.89S
$$

ILZ067-068-072-073-078-083-087-091-270100-
SOUTHEAST ILLINOIS

CITY           SKY/WX    TMP DP  RH WIND       PRES   REMARKS
LAWRENCEVILLE  FAIR      65  27  23 MISG      29.87F
FLORA*         FAIR      66  40  38 NW3       29.88F
FAIRFIELD*     FAIR      64  39  38 N3        29.87S
HARRISBURG*    FAIR      64  43  46 NW6       29.88S
ROBINSON*      FAIR      61  33  35 N3        29.88S
CARMI*         FAIR      62  41  46 N6        29.87S
$$

ABBREVIATIONS USED IN REMARKS
   TC - TEMPERATURE IN CELSIUS
  WCI - WIND CHILL INDEX
   HX - HEAT INDEX
  VSB - VISIBILITY
$$




USA.gov is the U.S. government's official web portal to all federal, state and local government web resources and services.